Location: Newark
(38.1091°N, 103.8677°W)
Time: 21:41:49
(UTC+00:00)

N. Korean satellite - Pass Details

Date: 21 October 2019
Orbit: 456 x 506 km, 97.2° (Epoch: 22 November)

Event Time Altitude Azimuth Distance (km) Brightness Sun altitude
Rises 12:14:43 0° 23° (NNE) 2,566 10.5 -11.5°
Reaches altitude 10° 12:16:58 10° 34° (NE) 1,689 9.7 -11.1°
Maximum altitude 12:20:12 30° 97° (E) 917 8.9 -10.5°
Drops below altitude 10° 12:23:27 10° 160° (SSE) 1,698 9.7 -9.8°
Sets 12:25:43 0° 171° (S) 2,582 10.5 -9.4°
